Decatur, IL (62523)

4:41 AM CST on February 12, 2016 (GMT -0600)
South Shores | | Change Station
CLOSE
Current Station
Personal Weather Station
Location: Decatur, IL
Elevation: 699 ft
Nearby Weather Stations

Elev 699 ft 39.81 °N, 88.95 °W | Updated 4 seconds ago

Snow
Snow
21.7 °F
Feels Like 22 °F
N
0.2
Wind Variable Wind from SSW
Gusts 2.5 mph

Today
High -- | Low -- °F
--% Chance of Precip.
Yesterday
High -- | Low -- °F
Precip. -- in
Pressure 30.20 in
Visibility 1.8 miles
Clouds Overcast 2500 ft
Windchill 22 °F
Dew Point 16 °F
Humidity 80%
Rainfall 0.00 in
Snow Depth Not available.
6:52 AM 5:27 PM
Waxing Crescent, 19% visible
SPECI KDEC 121028Z AUTO 22003KT 1 3/4SM -SN OVC025 M06/M08 A3020 RMK AO2 P0000 T10561083
Pressure 30.20 in
Visibility 1.8 miles
Clouds Overcast 2500 ft
Windchill 22 °F
Dew Point 16 °F
Humidity 80%
Rainfall 0.00 in
Snow Depth Not available.
6:52 AM 5:27 PM
Waxing Crescent, 19% visible
SPECI KDEC 121028Z AUTO 22003KT 1 3/4SM -SN OVC025 M06/M08 A3020 RMK AO2 P0000 T10561083

10-Day Weather Forecast

Almanac

Astronomy

Feb. 12, 2016 Rise Set
Actual Time
Civil Twilight
Nautical Twilight
Astronomical Twilight
Moon
Length of Visible Light
Length of Day
Tomorrow will be .
, % of the Moon is Illuminated

Today's Extremes

State Highs State Lows

Community

WunderPhotos

Upload Photos

1,892,289 photos uploaded!

WunderBlog® & News

Nearby

Air Quality

  Air Quality AQ Index Pollutant
Not available.

Snow Depth

Station Depth Elevation

Earthquake Activity

City Distance Mag. Time & Date
Minimum magnitude displayed is 2.5.

Coastal Water Temperatures

Place Temperature

Stations

Nearby Weather Stations

Station Location Temp. Windchill Dew Point Humidity Wind Precip. Elev Updated Type
                   

Watches & Warnings

There are currently no watches in effect.